TimeMDT,TemperatureF,Dew PointF,Humidity,Sea Level PressureIn,VisibilityMPH,Wind Direction,Wind SpeedMPH,Gust SpeedMPH,PrecipitationIn,Events,Conditions,WindDirDegrees,DateUTC
12:56 AM,45.0,45.0,100,29.59,-9999.0,WNW,19.6,-,N/A,,Unknown,300,2013-04-30 06:56:00
1:56 AM,45.0,42.1,90,29.60,-9999.0,NW,15.0,-,N/A,,Unknown,310,2013-04-30 07:56:00
2:56 AM,45.0,41.0,86,29.60,-9999.0,WNW,23.0,28.8,N/A,,Unknown,300,2013-04-30 08:56:00
3:56 AM,45.0,36.0,71,29.65,-9999.0,WNW,18.4,26.5,N/A,,Unknown,300,2013-04-30 09:56:00
4:56 AM,43.0,30.0,60,29.66,-9999.0,WNW,18.4,-,N/A,,Unknown,290,2013-04-30 10:56:00
5:56 AM,39.9,28.0,63,29.69,-9999.0,WNW,24.2,31.1,N/A,,Unknown,290,2013-04-30 11:56:00
6:56 AM,41.0,27.0,57,29.73,-9999.0,WNW,25.3,29.9,N/A,,Unknown,290,2013-04-30 12:56:00
7:56 AM,44.1,27.0,51,29.74,-9999.0,WNW,28.8,38.0,N/A,,Unknown,290,2013-04-30 13:56:00
8:56 AM,46.0,28.0,50,29.78,-9999.0,WNW,27.6,38.0,N/A,,Unknown,290,2013-04-30 14:56:00
9:56 AM,48.0,27.0,44,29.80,-9999.0,WNW,32.2,39.1,N/A,,Unknown,290,2013-04-30 15:56:00
10:56 AM,50.0,26.1,39,29.81,-9999.0,WNW,31.1,40.3,N/A,,Unknown,300,2013-04-30 16:56:00
11:56 AM,52.0,27.0,38,29.81,-9999.0,NW,27.6,36.8,N/A,,Unknown,310,2013-04-30 17:56:00
12:56 PM,51.1,24.1,35,29.82,-9999.0,NW,32.2,42.6,N/A,,Unknown,310,2013-04-30 18:56:00
1:56 PM,52.0,23.0,32,29.82,-9999.0,NW,26.5,39.1,N/A,,Unknown,320,2013-04-30 19:56:00
2:56 PM,51.1,25.0,36,29.89,-9999.0,NW,21.9,28.8,N/A,,Unknown,310,2013-04-30 20:56:00
3:56 PM,50.0,23.0,35,29.93,-9999.0,NW,23.0,27.6,N/A,,Unknown,320,2013-04-30 21:56:00
4:56 PM,48.0,21.9,36,29.97,-9999.0,NW,23.0,31.1,N/A,,Unknown,320,2013-04-30 22:56:00
5:56 PM,46.9,23.0,39,30.01,-9999.0,NNW,18.4,25.3,N/A,,Unknown,330,2013-04-30 23:56:00
6:56 PM,45.0,21.9,40,30.04,-9999.0,NNW,19.6,28.8,N/A,,Unknown,340,2013-05-01 00:56:00
7:56 PM,42.1,21.9,45,30.10,-9999.0,NNW,16.1,-,N/A,,Unknown,330,2013-05-01 01:56:00
8:56 PM,39.0,23.0,53,30.16,-9999.0,North,16.1,-,N/A,,Unknown,350,2013-05-01 02:56:00
9:56 PM,35.1,21.9,59,30.20,-9999.0,North,16.1,24.2,N/A,,Unknown,350,2013-05-01 03:56:00
10:56 PM,30.9,21.0,67,30.23,-9999.0,NNW,9.2,-,N/A,,Unknown,330,2013-05-01 04:56:00
11:56 PM,28.9,21.0,72,30.23,-9999.0,North,10.4,-,N/A,,Unknown,350,2013-05-01 05:56:00